| time (UTC) | temp F | wind direction | speed knots | gust knots | rain 1hr in | rain 24hr in | rain mn in | humidity % | barometer mb |
| 20260509213705 | 61 | 46 | 0.0 | 0.9 | 0.00 | 0.00 | 0.00 | 71 | 1009.5 |
| 20260509213204 | 61 | 46 | 0.0 | 1.7 | 0.00 | 0.00 | 0.00 | 71 | 1009.5 |
| 20260509211705 | 61 | 46 | 0.0 | 1.7 | 0.00 | 0.00 | 0.00 | 70 | 1009.6 |
| 20260509203704 | 62 | 46 | 0.0 | 1.7 | 0.00 | 0.00 | 0.00 | 68 | 1009.7 |
| 20260509201205 | 62 | 46 | 0.0 | 0.0 | 0.00 | 0.00 | 0.00 | 66 | 1009.7 |
| 20260509200205 | 63 | 46 | 0.0 | 0.0 | 0.00 | 0.00 | 0.00 | 65 | 1009.0 |
| 20260509194705 | 64 | 46 | 0.0 | 0.0 | 0.00 | 0.00 | 0.00 | 63 | 1009.0 |
| 20260509194204 | 64 | 46 | 0.0 | 0.0 | 0.00 | 0.00 | 0.00 | 62 | 1009.0 |
| 20260509193204 | 64 | 46 | 0.0 | 0.0 | 0.00 | 0.00 | 0.00 | 62 | 1009.0 |
| 20260509190704 | 66 | 46 | 0.0 | 0.0 | 0.00 | 0.00 | 0.00 | 59 | 1009.0 |
| 20260509190205 | 66 | 46 | 0.0 | 0.0 | 0.00 | 0.00 | 0.00 | 58 | 1009.0 |
| 20260509174204 | 72 | 46 | 0.9 | 1.7 | 0.00 | 0.00 | 0.00 | 47 | 1008.8 |
| 20260509173204 | 72 | 46 | 0.9 | 4.3 | 0.00 | 0.00 | 0.00 | 46 | 1008.7 |
| 20260509171704 | 72 | 46 | 1.7 | 4.3 | 0.00 | 0.00 | 0.00 | 46 | 1008.7 |
| 20260509171204 | 72 | 46 | 0.9 | 2.6 | 0.00 | 0.00 | 0.00 | 46 | 1008.7 |
| 20260509163704 | 74 | 46 | 0.9 | 4.3 | 0.00 | 0.00 | 0.00 | 44 | 1009.0 |
| 20260509163205 | 74 | 46 | 0.9 | 4.3 | 0.00 | 0.00 | 0.00 | 44 | 1009.0 |
| 20260509161704 | 75 | 45 | 1.7 | 2.6 | 0.00 | 0.00 | 0.00 | 40 | 1009.3 |
| 20260509161204 | 76 | 49 | 0.9 | 2.6 | 0.00 | 0.00 | 0.00 | 41 | 1009.3 |
| 20260509154205 | 76 | 56 | 0.9 | 2.6 | 0.00 | 0.00 | 0.00 | 40 | 1009.4 |
| 20260509153705 | 76 | 56 | 0.9 | 2.6 | 0.00 | 0.00 | 0.00 | 41 | 1009.4 |
| 20260509151704 | 76 | 48 | 0.9 | 2.6 | 0.00 | 0.00 | 0.00 | 39 | 1009.4 |
| 20260509150704 | 76 | 45 | 0.0 | 2.6 | 0.00 | 0.00 | 0.00 | 39 | 1009.5 |
| 20260509144704 | 76 | 45 | 0.9 | 2.6 | 0.00 | 0.00 | 0.00 | 38 | 1009.5 |
| 20260509144204 | 76 | 42 | 1.7 | 2.6 | 0.00 | 0.00 | 0.00 | 42 | 1009.5 |
| 20260509140204 | 75 | 46 | 1.7 | 2.6 | 0.00 | 0.00 | 0.00 | 42 | 1009.8 |
| 20260509134204 | 76 | 47 | 1.7 | 4.3 | 0.00 | 0.00 | 0.00 | 38 | 1010.1 |
| 20260509133204 | 76 | 51 | 0.9 | 4.3 | 0.00 | 0.00 | 0.00 | 42 | 1010.1 |
| 20260509131204 | 75 | 59 | 0.9 | 4.3 | 0.00 | 0.00 | 0.00 | 39 | 1010.6 |
| 20260509130204 | 76 | 75 | 1.7 | 8.7 | 0.00 | 0.00 | 0.00 | 41 | 1010.6 |
| 20260509121704 | 76 | 44 | 0.0 | 2.6 | 0.00 | 0.00 | 0.00 | 41 | 1010.7 |
| 20260509121204 | 76 | 46 | 1.7 | 4.3 | 0.00 | 0.00 | 0.00 | 41 | 1010.7 |
| 20260509120204 | 75 | 46 | 0.9 | 4.3 | 0.00 | 0.00 | 0.00 | 41 | 1010.8 |
| 20260509114704 | 75 | 42 | 0.0 | 2.6 | 0.00 | 0.00 | 0.00 | 41 | 1011.0 |
| 20260509114204 | 74 | 42 | 0.9 | 2.6 | 0.00 | 0.00 | 0.00 | 43 | 1011.0 |
| 20260509113204 | 74 | 42 | 1.7 | 4.3 | 0.00 | 0.00 | 0.00 | 44 | 1011.0 |
| 20260509111704 | 74 | 41 | 1.7 | 2.6 | 0.00 | 0.00 | 0.00 | 45 | 1011.7 |
| 20260509110705 | 73 | 40 | 1.7 | 4.3 | 0.00 | 0.00 | 0.00 | 46 | 1011.7 |
| 20260509110204 | 73 | 39 | 0.9 | 4.3 | 0.00 | 0.00 | 0.00 | 46 | 1011.7 |
| 20260509104704 | 73 | 27 | 0.9 | 5.2 | 0.00 | 0.00 | 0.00 | 50 | 1011.7 |
| 20260509104204 | 73 | 27 | 1.7 | 4.3 | 0.00 | 0.00 | 0.00 | 50 | 1011.7 |
| 20260509103704 | 73 | 18 | 0.9 | 2.6 | 0.00 | 0.00 | 0.00 | 51 | 1011.7 |
| 20260509101704 | 73 | 32 | 1.7 | 4.3 | 0.00 | 0.00 | 0.00 | 52 | 1011.7 |
| 20260509100205 | 72 | 30 | 1.7 | 2.6 | 0.00 | 0.00 | 0.00 | 56 | 1011.7 |
| 20260509094204 | 71 | 27 | 1.7 | 4.3 | 0.00 | 0.00 | 0.00 | 56 | 1011.7 |
| 20260509090204 | 71 | 23 | 0.9 | 4.3 | 0.00 | 0.00 | 0.00 | 55 | 1012.0 |
| 20260509084704 | 70 | 22 | 1.7 | 2.6 | 0.00 | 0.00 | 0.00 | 57 | 1012.0 |
| 20260509084204 | 70 | 21 | 1.7 | 2.6 | 0.00 | 0.00 | 0.00 | 54 | 1012.0 |
| 20260509083704 | 70 | 16 | 0.9 | 2.6 | 0.00 | 0.00 | 0.00 | 54 | 1012.0 |
| 20260509083204 | 70 | 16 | 0.9 | 4.3 | 0.00 | 0.00 | 0.00 | 55 | 1012.0 |
| 20260509074704 | 69 | 355 | 0.0 | 1.7 | 0.00 | 0.00 | 0.00 | 57 | 1012.1 |
| 20260509073704 | 68 | 355 | 0.9 | 1.7 | 0.00 | 0.00 | 0.00 | 58 | 1012.1 |
| 20260509071704 | 66 | 355 | 0.0 | 1.7 | 0.00 | 0.00 | 0.00 | 63 | 1012.2 |
| 20260509070204 | 65 | 355 | 0.0 | 2.6 | 0.00 | 0.00 | 0.00 | 65 | 1012.2 |
| 20260509064204 | 63 | 355 | 0.9 | 1.7 | 0.00 | 0.00 | 0.00 | 66 | 1012.2 |
| 20260509061204 | 60 | 355 | 0.0 | 2.6 | 0.00 | 0.00 | 0.00 | 72 | 1012.2 |
| 20260509053704 | 56 | 355 | 1.7 | 2.6 | 0.00 | 0.00 | 0.00 | 77 | 1012.1 |
| 20260509053204 | 56 | 355 | 0.9 | 5.2 | 0.00 | 0.00 | 0.00 | 77 | 1012.1 |
| 20260509050704 | 55 | 355 | 0.9 | 4.3 | 0.00 | 0.00 | 0.00 | 78 | 1011.7 |
| 20260509050203 | 54 | 355 | 1.7 | 4.3 | 0.00 | 0.00 | 0.00 | 79 | 1011.7 |
| 20260509044204 | 53 | 355 | 0.0 | 1.7 | 0.00 | 0.00 | 0.00 | 81 | 1011.6 |
| 20260509043704 | 53 | 355 | 0.0 | 1.7 | 0.00 | 0.00 | 0.00 | 80 | 1011.6 |
| 20260509043204 | 53 | 355 | 0.9 | 4.3 | 0.00 | 0.00 | 0.00 | 80 | 1011.6 |
| 20260509040204 | 54 | 355 | 1.7 | 4.3 | 0.00 | 0.00 | 0.00 | 79 | 1011.6 |
| 20260509034704 | 54 | 355 | 0.9 | 2.6 | 0.00 | 0.00 | 0.00 | 78 | 1011.6 |
| 20260509034204 | 54 | 355 | 0.9 | 2.6 | 0.00 | 0.00 | 0.00 | 78 | 1011.6 |
| 20260509031204 | 54 | 355 | 1.7 | 2.6 | 0.00 | 0.00 | 0.00 | 78 | 1011.4 |
| 20260509030704 | 54 | 355 | 0.9 | 5.2 | 0.00 | 0.00 | 0.00 | 79 | 1011.4 |
| 20260509030204 | 54 | 0 | 2.6 | 7.0 | 0.00 | 0.00 | 0.00 | 80 | 1011.4 |
| 20260509023704 | 53 | 32 | 1.7 | 4.3 | 0.00 | 0.00 | 0.00 | 82 | 1011.5 |
| 20260509023204 | 53 | 32 | 1.7 | 4.3 | 0.00 | 0.00 | 0.00 | 82 | 1011.5 |
| 20260509021204 | 54 | 32 | 0.9 | 2.6 | 0.00 | 0.00 | 0.00 | 82 | 1011.5 |
| 20260509020704 | 54 | 32 | 1.7 | 2.6 | 0.00 | 0.00 | 0.00 | 82 | 1011.5 |
| 20260509020204 | 54 | 32 | 0.9 | 2.6 | 0.00 | 0.00 | 0.00 | 82 | 1011.5 |
| 20260509014704 | 54 | 32 | 1.7 | 2.6 | 0.00 | 0.00 | 0.00 | 82 | 1011.5 |
| 20260509013704 | 54 | 32 | 1.7 | 2.6 | 0.00 | 0.00 | 0.00 | 83 | 1011.5 |
| 20260509013203 | 54 | 32 | 1.7 | 5.2 | 0.00 | 0.00 | 0.00 | 83 | 1011.5 |
| 20260509011204 | 53 | 38 | 0.9 | 2.6 | 0.00 | 0.00 | 0.00 | 84 | 1011.5 |
| 20260509010205 | 54 | 38 | 0.9 | 6.1 | 0.00 | 0.00 | 0.00 | 83 | 1011.5 |
| 20260509004203 | 54 | 38 | 0.9 | 2.6 | 0.00 | 0.00 | 0.00 | 84 | 1011.5 |
| 20260509003203 | 54 | 38 | 1.7 | 2.6 | 0.00 | 0.00 | 0.00 | 84 | 1011.5 |
| 20260509001704 | 55 | 38 | 0.9 | 2.6 | 0.00 | 0.00 | 0.00 | 84 | 1011.2 |
| 20260509001203 | 55 | 38 | 0.9 | 4.3 | 0.00 | 0.00 | 0.00 | 84 | 1011.2 |
| 20260509000703 | 55 | 38 | 1.7 | 2.6 | 0.00 | 0.00 | 0.00 | 84 | 1011.2 |
| 20260509000204 | 55 | 38 | 1.7 | 2.6 | 0.00 | 0.00 | 0.00 | 84 | 1011.2 |
| 20260508234204 | 55 | 38 | 0.9 | 2.6 | 0.00 | 0.00 | 0.00 | 84 | 1011.1 |
| 20260508231203 | 55 | 38 | 0.9 | 2.6 | 0.00 | 0.00 | 0.00 | 85 | 1011.1 |
| 20260508224204 | 55 | 38 | 0.9 | 2.6 | 0.00 | 0.00 | 0.00 | 84 | 1011.2 |
| 20260508223204 | 55 | 38 | 0.9 | 2.6 | 0.00 | 0.00 | 0.00 | 84 | 1011.1 |
| 20260508220705 | 55 | 38 | 1.7 | 4.3 | 0.00 | 0.00 | 0.00 | 84 | 1011.1 |